SCP
0 0 0 0 0 0 0 0 0 0 0 0 0 0 0 0 0 0 0 0 0 0 0 0 0 0 0 0 0 0 0 0 0 0 0 0 0 0 0 0 0 0 0 0 0 0 0 0 0
0 0 0 0 0 0 0 0 0 0 0 0 0 0 0 0 0 0 0 0 0 0 0 0 0 0 0 0 0 0 0 0 0 0 0 0 0 0 0 0 0 0 0 0 0 0 0 0 0
0 0 0 0 0 0 0 0 0 0 0 0 0 0 0 0 0 0 0 0 0 0 0 0 0 0 0 0 0 0 0 0 0 0 0 0 0 0 0 0 0 0 0 0 0 0 0 0 0
0 0 0 0 0 0 0 0 0 0 0 0 0 0 0 0 0 0 0 0 0 0 0 0 0 0 0 0 0 0 0 0 0 0 0 0 0 0 0 0 0 0 0 0 0 0 0 0 0
0 0 0 0 0 0 0 0 0 0 0 0 0 0 0 0 0 0 0 0 0 0 0 0 0 0 0 0 0 0 0 0 0 0 0 0 0 0 0 0 0 0 0 0 0 0 0 0 0
0 0 0 0 0 0 0 0 0 0 0 0 0 0 0 0 0 0 0 0 0 0 0 0 0 0 0 0 0 0 0 0 0 0 0 0 0 0 0 0 0 0 0 0 0 0 0 0 0
0 0 0 0 0 0 0 0 0 0 0 0 0 0 0 0 0 0 0 0 0 0 0 0 0 0 0 0 0 0 0 0 0 0 0 0 0 0 0 0 0 0 0 0 0 0 0 0 0
0 0 0 0 0 0 0 0 0 0 0 0 0 0 0 0 0 0 0 0 0 0 0 0 0 0 0 0 0 0 0 0 0 0 0 0 0 0 0 0 0 0 0 0 0 0 0 0 0
0 0 0 0 0 0 0 0 0 0 0 0 0 0 0 0 0 0 0 0 0 0 0 0 0 0 0 0 0 0 0 0 0 0 0 0 0 0 0 0 0 0 0 0 0 0 0 0 0
0 0 0 0 0 0 0 0 0 0 0 0 0 0 0 0 0 0 0 0 0 0 0 0 0 0 0 0 0 0 0 0 0 0 0 0 0 0 0 0 0 0 0 0 0 0 0 0 0
0 0 0 0 0 0 0 0 0 0 0 0 0 0 0 0 0 0 0 0 0 0 0 0 0 0 0 0 0 0 0 0 0 0 0 0 0 0 0 0 0 0 0 0 0 0 0 0 0
0 0 0 0 0 0 0 0 0 0 0 0 0 0 0 0 0 0 0 0 0 0 0 0 0 0 0 0 0 0 0 0 0 0 0 0 0 0 0 0 0 0 0 0 0 0 0 0 0
0 0 0 0 0 0 0 0 0 0 0 0 0 0 0 0 0 0 0 0 0 0 0 0 0 0 0 0 0 0 0 0 0 0 0 0 0 0 0 0 0 0 0 0 0 0 0 0 0
0 0 0 0 0 0 0 0 0 0 0 0 0 0 0 0 0 0 0 0 0 0 0 0 0 0 0 0 0 0 0 0 0 0 0 0 0 0 0 0 0 0 0 0 0 0 0 0 0
0 0 0 0 0 0 0 0 0 0 0 0 0 0 0 0 0 0 0 0 0 0 0 0 0 0 0 0 0 0 0 0 0 0 0 0 0 0 0 0 0 0 0 0 0 0 0 0 0
0 0 0 0 0 0 0 0 0 0 0 0 0 0 0 0 0 0 0 0 0 0 0 0 0 0 0 0 0 0 0 0 0 0 0 0 0 0 0 0 0 0 0 0 0 0 0 0 0
0 0 0 0 0 0 0 0 0 0 0 0 0 0 0 0 0 0 0 0 0 0 0 0 0 0 0 0 0 0 0 0 0 0 0 0 0 0 0 0 0 0 0 0 0 0 0 0 0
0 0 0 0 0 0 0 0 0 0 0 0 0 0 0 0 0 0 0 0 0 0 0 0 0 0 0 0 0 0 0 0 0 0 0 0 0 0 0 0 0 0 0 0 0 0 0 0 0
0 0 0 0 0 0 0 0 0 0 0 0 0 0 0 0 0 0 0 0 0 0 0 0 0 0 0 0 0 0 0 0 0 0 0 0 0 0 0 0 0 0 0 0 0 0 0 0 0
0 0 0 0 0 0 0 0 0 0 0 0 0 0 0 0 0 0 0 0 0 0 0 0 0 0 0 0 0 0 0 0 0 0 0 0 0 0 0 0 0 0 0 0 0 0 0 0 0
0 0 0 0 0 0 0 0 0 0 0 0 0 0 0 0 0 0 0 0 0 0 0 0 0 0 0 0 0 0 0 0 0 0 0 0 0 0 0 0 0 0 0 0 0 0 0 0 0
0 0 0 0 0 0 0 0 0 0 0 0 0 0 0 0 0 0 0 0 0 0 0 0 0 0 0 0 0 0 0 0 0 0 0 0 0 0 0 0 0 0 0 0 0 0 0 0 0
0 0 0 0 0 0 0 0 0 0 0 0 0 0 0 0 0 0 0 0 0 0 0 0 0 0 0 0 0 0 0 0 0 0 0 0 0 0 0 0 0 0 0 0 0 0 0 0 0
0 0 0 0 0 0 0 0 0 0 0 0 0 0 0 0 0 0 0 0 0 0 0 0 0 0 0 0 0 0 0 0 0 0 0 0 0 0 0 0 0 0 0 0 0 0 0 0 0
0 0 0 0 0 0 0 0 0 0 0 0 0 0 0 0 0 0 0 0 0 0 0 0 0 0 0 0 0 0 0 0 0 1 0 0 0 0 0 0 0 0 0 0 0 0 0 0 0
0 0 0 0 0 0 0 0 0 0 0 0 0 0 0 0 0 0 0 0 0 0 0 0 0 0 0 0 0 0 0 0 0 1 1 0 0 0 0 0 0 0 0 0 0 0 0 0 0
0 0 0 0 0 0 0 0 0 0 0 0 0 0 0 0 0 0 0 0 0 0 0 0 0 0 0 0 0 0 0 0 0 0 0 0 0 0 0 0 0 0 0 0 0 0 0 0 0
0 0 0 0 0 0 0 0 0 0 0 0 0 0 0 0 0 0 0 0 0 0 0 0 0 0 0 0 0 0 0 0 0 0 0 0 0 0 0 0 0 0 0 0 0 0 0 0 0
0 0 0 0 0 0 0 0 0 0 0 0 0 0 0 0 0 0 0 0 0 0 0 0 0 0 0 0 0 0 0 0 0 0 0 0 0 0 0 0 0 0 0 0 0 0 0 0 0
0 0 0 0 0 0 0 0 0 0 0 0 0 0 0 0 0 0 0 0 0 0 0 0 0 0 0 0 0 0 0 0 0 0 0 0 0 0 0 0 0 0 0 0 0 0 0 0 0
Wind_Speed
6 5 3 2 2 0 2 2 1 3 3 3 3 2 2 1 1 4 7 11 12 13 13 13 11 12 13 12 12 13 14 15 15 16 16 16 16 17 17 16 16 17 18 18 18 18 18 17 17
5 4 2 1 2 2 2 2 3 3 4 5 4 2 3 3 3 6 8 11 13 13 12 12 12 12 13 12 12 13 14 15 15 15 16 16 16 16 16 16 16 16 17 17 17 17 17 17 17
3 3 2 0 2 2 2 2 2 4 5 3 4 2 1 3 5 7 8 13 13 12 12 13 11 12 13 12 13 13 14 14 15 15 15 15 16 16 16 16 15 16 16 17 17 17 16 16 16
2 1 0 2 3 1 1 1 3 7 5 2 3 5 4 3 4 6 12 14 13 12 12 13 11 12 13 12 13 14 14 15 15 15 15 15 15 15 15 15 15 15 16 16 16 16 16 15 15
1 0 2 3 3 1 1 1 5 8 6 5 4 4 5 3 3 9 13 13 13 12 12 13 11 11 11 12 13 13 14 14 15 15 15 15 15 14 14 15 14 14 15 15 15 15 15 14 14
1 1 5 6 5 2 2 3 6 6 5 5 5 5 5 3 7 12 13 12 12 12 12 12 10 10 10 11 11 12 13 14 14 14 14 14 14 14 14 14 14 14 14 14 14 14 13 13 13
2 3 5 6 5 4 2 4 6 6 7 6 6 6 5 5 8 12 11 10 11 11 11 11 12 11 10 10 10 11 11 12 13 13 13 13 13 13 13 13 13 13 13 13 13 13 13 12 12
2 3 5 6 6 5 3 4 2 5 4 4 5 5 5 9 11 11 10 10 10 10 10 11 11 11 11 11 10 10 11 11 12 13 12 12 12 12 10 11 12 12 12 12 12 12 12 11 11
3 6 8 8 6 3 4 4 3 0 5 4 3 1 3 15 14 12 10 10 10 10 10 10 11 10 10 10 10 11 11 11 12 11 11 9 9 9 8 10 10 11 11 11 11 11 10 8 9
5 8 10 5 5 2 4 3 5 5 6 6 5 3 8 16 16 15 14 15 14 13 12 10 11 10 10 8 9 8 7 8 7 8 8 6 6 6 7 10 10 9 9 10 10 8 6 3 4
7 9 7 5 4 2 3 2 4 6 7 8 9 11 15 16 16 16 16 15 15 14 12 11 11 10 10 7 7 5 5 5 6 8 7 6 6 5 5 5 6 6 6 6 6 4 3 4 3
6 7 5 5 4 4 3 3 4 8 6 1 5 13 18 19 19 19 17 16 15 14 14 12 12 10 10 8 6 6 5 5 5 6 8 6 4 5 5 4 4 4 3 4 3 3 3 3 3
9 6 5 4 4 3 3 5 5 9 8 3 5 14 19 20 19 17 15 15 14 15 14 13 12 11 10 8 6 6 6 6 6 6 6 6 5 5 5 4 3 4 3 3 3 2 2 2 2
8 7 4 4 4 3 5 6 6 10 5 5 9 14 18 20 20 17 17 16 16 15 15 14 14 12 11 8 7 6 6 6 6 6 7 7 5 5 5 5 4 4 3 2 2 1 1 1 1
4 6 7 7 7 5 4 11 13 10 6 8 10 12 15 17 18 19 19 18 17 16 15 15 14 13 12 11 9 7 6 6 6 6 7 7 6 6 5 5 4 4 3 3 2 1 1 1 1
6 7 9 8 8 7 9 16 13 7 9 11 11 11 13 16 19 18 18 16 16 16 16 15 12 13 13 11 10 7 7 7 7 6 7 8 8 7 6 5 5 4 4 3 2 2 1 1 2
8 11 12 9 8 8 12 14 10 6 10 12 12 12 12 14 17 18 17 17 16 16 16 16 15 15 14 12 9 8 7 8 7 7 7 8 9 8 7 5 5 5 4 3 3 2 2 2 2
12 12 11 13 7 10 13 16 13 7 10 13 12 11 12 14 18 18 17 17 16 16 15 16 16 15 14 10 8 7 8 7 7 7 8 10 9 10 8 6 6 6 5 4 4 4 2 2 2
10 13 14 9 5 9 14 18 18 14 12 14 14 13 14 16 15 15 16 16 16 16 16 17 17 16 13 10 9 8 9 8 8 8 10 11 10 11 9 7 7 6 6 6 5 4 4 2 1
10 11 11 5 2 6 11 17 18 17 16 17 17 16 15 15 13 14 16 17 18 19 18 18 18 17 16 12 11 8 9 8 9 8 10 12 12 11 9 10 7 7 6 6 6 5 3 2 2
14 14 11 6 2 3 7 16 20 19 17 17 17 17 17 16 16 16 17 19 19 20 21 17 19 19 18 17 11 8 8 6 7 9 9 12 13 12 11 11 9 8 7 7 7 7 6 4 3
15 10 8 6 5 6 5 12 13 15 18 19 20 19 19 18 17 17 17 19 21 21 19 20 20 20 19 18 15 16 13 12 12 10 10 12 13 13 13 12 11 9 8 7 7 7 6 5 4
7 9 8 6 6 8 8 11 12 8 16 18 20 21 21 20 19 19 19 20 20 20 19 19 20 20 20 20 19 18 16 14 11 11 13 12 11 13 12 12 10 10 8 8 8 7 7 5 5
12 9 6 3 2 12 16 14 15 11 14 14 15 18 20 20 19 19 18 16 17 16 17 18 19 21 20 21 21 21 20 17 15 14 12 11 9 9 12 11 10 9 8 8 8 8 8 6 5
13 10 6 6 8 11 6 13 16 9 11 14 15 16 17 16 17 17 17 17 17 18 19 18 20 21 21 22 22 22 21 20 19 17 15 12 9 9 12 11 10 9 8 8 7 7 7 7 7
17 15 10 10 9 6 6 14 13 6 9 11 13 14 12 13 14 15 16 16 16 17 18 19 21 21 21 21 21 20 20 16 14 17 14 13 11 11 12 12 10 10 9 8 8 6 6 6 6
15 13 5 2 1 4 9 10 12 8 11 13 14 14 14 13 11 12 12 13 14 15 17 19 20 20 20 21 21 19 19 18 16 16 15 11 10 8 11 10 10 9 9 9 9 6 7 6 6
10 12 7 8 8 10 11 12 10 5 10 13 13 13 13 9 8 9 10 10 10 11 12 14 17 18 18 19 18 14 18 17 16 14 14 12 11 10 11 10 10 10 9 9 8 8 7 8 7
12 13 10 9 7 8 9 9 5 9 8 8 8 8 8 7 7 7 7 7 7 7 9 11 13 15 15 16 16 16 15 15 14 13 13 12 11 12 12 12 11 11 10 10 9 9 10 10 8
13 15 15 12 10 8 7 11 3 6 5 5 6 5 5 5 5 5 5 5 6 7 8 9 10 12 12 13 13 13 12 12 12 12 12 12 12 12 12 12 12 11 11 10 11 11 10 11 11
Wind_Direction
339 336 308 291 263 198 118 110 160 152 140 106 128 178 179 106 6 73 109 144 139 141 139 137 128 125 122 119 118 113 110 108 106 104 101 100 99 97 94 93 92 92 89 87 85 82 80 78 76
345 331 308 318 265 220 139 137 184 142 111 124 125 147 162 107 54 104 140 148 146 142 142 137 129 128 124 121 120 116 113 111 108 105 103 102 100 99 97 94 93 92 91 88 86 84 82 80 79
350 353 349 273 234 244 125 138 164 119 132 154 137 107 71 91 125 139 144 150 147 143 140 132 133 131 127 123 122 120 117 114 110 109 106 104 101 99 97 94 93 92 91 89 87 86 83 82 80
332 353 355 240 214 226 309 90 161 152 158 158 162 134 105 65 137 142 146 153 148 145 142 136 136 132 130 126 125 125 121 118 114 112 110 106 103 100 98 95 94 93 91 90 89 87 85 83 82
22 261 219 223 228 216 250 225 181 181 172 164 179 147 123 84 119 143 152 155 151 148 144 141 135 131 130 128 127 126 123 120 116 113 111 108 105 104 101 99 97 95 94 92 90 89 87 84 82
119 199 225 227 221 220 222 188 181 196 175 164 180 154 117 112 148 151 155 156 153 150 145 142 131 128 128 126 124 124 124 121 118 115 113 110 109 108 106 103 100 99 97 95 93 91 89 86 83
182 203 227 233 236 232 194 173 196 193 191 179 178 159 134 157 157 153 155 155 155 153 150 148 147 138 124 117 117 119 118 118 117 114 110 106 105 105 103 103 103 102 100 97 95 93 91 89 85
188 200 214 221 231 234 157 170 213 203 182 134 184 186 163 164 155 153 154 156 157 159 158 154 153 150 145 134 116 113 111 111 110 106 101 101 102 99 98 106 103 103 101 99 97 95 91 88 83
187 213 222 215 218 214 159 177 143 146 143 159 199 307 115 142 153 157 160 165 168 168 166 162 158 154 149 142 132 125 115 113 118 113 112 123 124 120 115 99 101 104 103 101 99 96 92 92 88
190 217 223 211 210 193 169 200 164 177 187 188 186 151 144 151 164 170 175 176 178 178 173 170 167 160 154 146 150 147 144 144 145 141 141 134 125 115 112 96 89 92 99 103 98 100 109 107 94
198 221 219 206 199 196 180 194 181 205 219 216 205 172 163 168 176 182 185 184 184 181 177 176 173 168 163 158 159 157 153 152 151 150 147 138 133 133 133 129 125 120 123 117 117 122 92 76 64
201 219 211 197 168 185 202 191 205 226 244 286 216 168 171 180 186 189 189 187 186 185 185 182 178 176 173 168 165 165 163 161 160 158 158 153 148 148 143 141 137 138 132 125 121 106 91 79 65
210 208 206 200 188 209 213 231 247 247 249 257 177 170 182 188 192 194 192 190 190 190 188 188 184 182 178 174 170 175 173 171 166 165 168 167 159 155 151 145 148 144 141 144 134 117 99 75 45
210 215 214 212 215 217 236 254 242 254 227 200 185 187 193 195 194 193 194 193 194 194 192 189 190 187 184 183 181 180 180 176 175 175 175 175 169 163 160 159 162 161 157 147 145 124 98 32 358
178 213 235 230 222 215 230 254 239 246 202 211 205 201 201 203 199 200 199 197 195 195 193 192 192 190 191 191 190 187 185 185 184 181 181 182 181 175 174 172 175 172 167 169 177 175 225 295 304
177 214 232 220 210 202 216 252 247 221 210 226 218 211 207 208 207 207 204 202 198 195 194 193 192 195 196 195 194 193 191 192 191 187 186 189 190 188 185 185 185 179 184 193 196 208 239 268 300
193 216 224 223 207 195 215 249 252 211 217 232 226 217 213 211 213 212 208 205 202 198 195 194 194 197 198 197 197 197 195 198 198 194 194 193 194 195 197 198 191 185 193 199 197 220 246 277 298
196 210 217 223 200 204 224 243 246 222 226 238 236 226 220 219 216 210 209 207 204 201 199 197 197 198 197 196 197 198 201 204 205 203 203 199 197 199 202 203 199 192 199 203 205 212 217 268 302
199 208 219 224 205 214 235 246 250 243 237 243 240 233 227 228 225 211 208 207 205 204 202 201 199 198 195 193 194 197 203 203 206 209 208 206 203 201 204 204 202 200 209 210 205 205 213 226 248
199 209 218 214 186 233 255 256 254 249 244 243 243 237 232 230 220 211 207 206 207 206 205 204 203 200 198 198 197 200 200 208 209 205 210 210 207 205 205 207 206 203 208 209 205 202 203 198 209
212 218 214 206 153 230 279 265 248 244 240 242 243 243 240 232 224 214 208 207 208 210 209 206 204 203 201 200 198 196 198 199 203 208 209 211 210 207 205 209 208 204 205 207 204 199 204 208 189
214 209 202 186 213 239 235 272 253 241 241 237 237 236 236 232 227 221 211 209 210 211 209 209 207 206 203 200 200 197 200 204 206 205 207 207 209 209 208 209 207 205 203 207 202 199 203 203 195
189 164 179 196 227 256 231 260 264 230 244 242 238 236 235 232 227 223 215 212 212 210 208 209 209 208 205 203 203 204 211 214 211 207 208 206 206 209 209 207 205 204 202 204 196 191 195 200 202
132 116 95 90 206 249 235 238 265 230 238 244 241 238 235 232 228 227 223 217 216 210 209 209 210 211 208 206 207 209 212 212 210 207 206 204 203 205 208 205 202 201 198 197 194 190 192 190 192
162 150 162 190 212 240 196 224 254 244 234 241 246 245 240 234 230 227 223 217 214 209 208 209 210 212 210 209 210 212 214 213 214 210 208 203 201 202 203 198 198 196 194 187 180 180 180 181 181
186 186 193 200 212 213 187 235 255 248 252 254 258 262 263 251 238 231 225 219 215 212 209 208 211 214 211 211 213 213 214 214 216 214 209 206 203 202 197 193 191 188 183 176 171 168 167 166 170
174 201 201 141 93 245 227 249 275 251 253 249 248 250 253 251 246 241 233 225 220 215 211 210 211 214 213 213 213 213 213 214 214 211 210 207 202 191 189 184 180 177 173 168 162 160 159 153 151
182 163 159 192 198 232 246 246 249 230 230 238 244 249 255 257 252 246 238 230 225 223 218 214 215 216 215 214 214 213 213 213 212 208 205 200 191 181 178 173 170 167 166 161 156 152 151 146 142
162 176 183 191 222 224 244 250 226 234 237 250 261 271 278 271 257 246 239 229 224 222 220 217 217 218 217 215 216 214 213 210 208 206 201 192 182 178 177 173 167 165 163 159 156 153 153 149 145
190 188 182 188 203 221 248 260 186 225 248 260 277 285 286 277 275 265 249 230 219 217 216 218 219 220 220 217 216 214 211 206 204 201 193 182 179 177 175 169 165 163 161 160 159 155 158 157 155